This demonstration page uses our WeatherBlox Daily Observations layout. Learn more.

Left ArrowRight Arrow

Hourly Observations for February 22, 2020

Temp ( °F °C ) Dew Point ( °F °C ) Humidity (%) Winds ( mph kmh ) Pressure ( in mb ) Visibility ( mi km ) Precip ( " mm )
12:53 am 00:53 Clear 19 -7.2 13 -10.6 77 77 N N/A 30.48 1032 10 16 N/A
1:53 am 01:53 Clear 19 -7.2 14 -10 81 81 N N/A 30.47 1032 10 16 N/A
2:53 am 02:53 Clear 18 -7.8 14 -10 84 84 N N/A 30.45 1031 10 16 N/A
3:53 am 03:53 Clear 17 -8.3 14 -10 88 88 N N/A 30.46 1031 10 16 N/A
4:53 am 04:53 Clear 17 -8.3 14 -10 88 88 N N/A 30.46 1032 10 16 N/A
5:53 am 05:53 Clear 16 -8.9 13 -10.6 88 88 N N/A 30.46 1031 10 16 N/A
6:53 am 06:53 Clear 15 -9.4 11 -11.7 84 84 N N/A 30.48 1032 10 16 N/A
7:53 am 07:53 Sunny 17 -8.3 13 -10.6 84 84 N N/A 30.48 1032 10 16 N/A
8:53 am 08:53 Sunny 28 -2.2 17 -8.3 63 63 N N/A 30.49 1033 10 16 N/A
9:53 am 09:53 Sunny 34 1.1 16 -8.9 48 48 SW 7 11 30.47 1032 10 16 N/A
10:53 am 10:53 Sunny 38 3.3 14 -10 37 37 SW 7 11 30.45 1031 10 16 N/A
11:53 am 11:53 Sunny 42 5.6 14 -10 32 32 WSW 10 17 30.43 1031 10 16 N/A
12:53 pm 12:53 Sunny 45 7.2 14 -10 29 29 SSW 12 19 30.40 1029 10 16 N/A
1:53 pm 13:53 Sunny 46 7.8 15 -9.4 29 29 SW 8 13 30.36 1028 10 16 N/A
2:53 pm 14:53 Sunny 49 9.4 15 -9.4 26 26 SW 8 13 30.34 1027 10 16 N/A
3:53 pm 15:53 Sunny 50 10 13 -10.6 22 22 S 10 17 30.32 1027 10 16 N/A
4:53 pm 16:53 Sunny 50 10 11 -11.7 21 21 VRB 6 9 30.30 1026 10 16 N/A
5:53 pm 17:53 Sunny 48 8.9 12 -11.1 23 23 SSW 7 11 30.29 1026 10 16 N/A
6:53 pm 18:53 Clear 42 5.6 14 -10 32 32 S 3 6 30.30 1026 10 16 N/A
7:53 pm 19:53 Clear 33 0.6 18 -7.8 54 54 N N/A 30.30 1026 10 16 N/A
8:53 pm 20:53 Clear 30 -1.1 16 -8.9 56 56 W 3 6 30.29 1026 10 16 N/A
9:53 pm 21:53 Clear 27 -2.8 17 -8.3 66 66 N N/A 30.29 1026 10 16 N/A
10:53 pm 22:53 Clear 26 -3.3 17 -8.3 69 69 N N/A 30.29 1026 10 16 N/A
11:53 pm 23:53 Clear 25 -3.9 18 -7.8 75 75 N N/A 30.27 1025 10 16 N/A

Powered by AerisWeather